BREEZE-M DEB (TANK), 42751

Orbit data source: Space-Track

BREEZE-M DEB (TANK), 42751 is space debris in HEO originally from a launch on Thu, 08 Jun 2017 UTC launched from the Tyuratam Missile And Space Complex (TTMTR). Debris objects in space refer to the collection of defunct objects orbiting the Earth. Examples of debris include non-operational satellites, rocket bodies, and fragments generated from explosions, collisions, or faulty payload assembly.

Loading next visibility...
Identifier
42751, 2017-032C
Orbit
HEO
Last TLE update
6 hours ago
Origin
Manufacturer
Khrunichev
Mission
Spacecraft
Bus & Motor
BRIZ TANK, Unknown motor
Mass
~1,000 kg wet, 1,000 kg dry
Launch date (UTC)
2017-06-08 (8 years ago)
Launch vehicle
Unknown
Launch site
Tyuratam Missile And Space Complex (TTMTR)
Object type
Payload
Rocket body
Debris
Shape & HBR
Torus, 4 m
Radar Cross Section
8.218 m², Large (>1 m²)

Expand to show TLE details & history

TLE from 6 hours ago
0 BREEZE-M DEB (TANK)
1 42751U 17032C   25194.21676691  .00002465  00000-0  47597-3 0  9993
2 42751  49.7091 246.0154 4554610 323.8862  12.6227  6.35145919184501
Epoch: 2025-07-13T05:12Z
TLE epoch observation values (Epoch: 2025-07-13T05:12:08.661Z)
Latitude
-0.00009°
Longitude
-123.35308°
Altitude
762.419 km
Speed
8.905 km/s
True Right ascension
16h 24m 06s
True Declination
0° 00' 00"
Sunlit
Object was in full shadow at epoch
Visualization orbit readout
Latitude
0.09999°
Longitude
56.29124°
Altitude
9,115.161 km
Speed
4.37 km/s
Apparent Right ascension
05h 36m 02s
Apparent Declination
-15° 52' 20"
Sunlit
Object is in daylight
Visualization observer readout
Local Sidereal Time
23:58:43
Azimuth
105.796° ESE
Elevation
-5.887°
Doppler factor
1
Orbital elements
Apogee altitude
11,548.951 km
Perigee altitude
329.015 km
Semi-major axis
12,317.12 km
Eccentricity
0.45546
Inclination
49.7091°
RAAN
246.0154°
Arg. of periapsis
323.8862°
True anomaly
Unknown
Mean anomaly
12.6227°
Eccentric anomaly
Unknown
Mean motion
1.58774 °/min
Orbital period
226.74 mins
BSTAR
0.00047597
Loading maneuver chart data...
Loading SW <> Apogee altitude chart data...
Loading historical data...
Loading historical data...
Loading historical data...
Loading historical data...
Loading historical data...
Loading historical data...
Loading historical data...
Other satellites on launch #32 in the year 2017 (2017-06-08 UTC)

BREEZE-M DEB (TANK) Visibility forecast

Observer location: undefined°, undefined°

Span
Click to sort rows by Start time (UTC) header in descending order
Start Az.
Max El. time (UTC)
Max El. Az.
Max El.
End time (UTC)
End Az.
138 mins2025-07-13 13:15:47.067Z303.757° NW2025-07-13 14:13:47.067Z235.795° WSW44.03°2025-07-13 15:33:47.067Z161.539° S
80 mins2025-07-13 17:37:47.067Z301.391° NW2025-07-13 18:15:47.067Z275.596° WNW17.907°2025-07-13 18:57:47.067Z246.377° WSW
27 mins2025-07-14 03:58:47.067Z144.407° SSE2025-07-14 04:05:47.067Z96.389° ESE23.841°2025-07-14 04:25:47.067Z54.221° ENE
92 mins2025-07-14 07:49:47.067Z256.884° W2025-07-14 08:03:47.067Z340.168° N44.061°2025-07-14 09:21:47.067Z78.771° E
|